owner,sensor,date,latitude,longitude,air_temperature,qcFlag 
COMPS,ioos:station:USF.COMPS:BGC:1,2012-09-07T11:00:00Z,26.4040,-81.8810,25.06,1111122 
COMPS,ioos:station:USF.COMPS:BGC:1,2012-09-07T11:06:00Z,26.4040,-81.8810,25.06,1111122 
COMPS,ioos:station:USF.COMPS:BGC:1,2012-09-07T11:12:00Z,26.4040,-81.8810,25.01,1111122 
COMPS,ioos:station:USF.COMPS:BGC:1,2012-09-07T11:18:00Z,26.4040,-81.8810,25.01,1111122 
COMPS,ioos:station:USF.COMPS:BGC:1,2012-09-07T11:24:00Z,26.4040,-81.8810,25.01,1111122 
COMPS,ioos:station:USF.COMPS:BGC:1,2012-09-07T11:30:00Z,26.4040,-81.8810,25.11,1111122 
COMPS,ioos:station:USF.COMPS:BGC:1,2012-09-07T11:36:00Z,26.4040,-81.8810,25.28,1111122 
COMPS,ioos:station:USF.COMPS:BGC:1,2012-09-07T11:42:00Z,26.4040,-81.8810,25.52,1111122 
COMPS,ioos:station:USF.COMPS:BGC:1,2012-09-07T11:48:00Z,26.4040,-81.8810,25.67,1111122 
COMPS,ioos:station:USF.COMPS:BGC:1,2012-09-07T11:54:00Z,26.4040,-81.8810,25.71,1111122 
COMPS,ioos:station:USF.COMPS:BGC:1,2012-09-07T12:00:00Z,26.4040,-81.8810,25.9,1111122 
COMPS,ioos:station:USF.COMPS:BGC:1,2012-09-07T12:06:00Z,26.4040,-81.8810,25.8,1111122 
COMPS,ioos:station:USF.COMPS:BGC:1,2012-09-07T12:12:00Z,26.4040,-81.8810,26.03,1111122 
COMPS,ioos:station:USF.COMPS:BGC:1,2012-09-07T12:18:00Z,26.4040,-81.8810,26.21,1111122 
COMPS,ioos:station:USF.COMPS:BGC:1,2012-09-07T12:24:00Z,26.4040,-81.8810,26.41,1111122 
COMPS,ioos:station:USF.COMPS:BGC:1,2012-09-07T12:30:00Z,26.4040,-81.8810,26.76,1111122 
COMPS,ioos:station:USF.COMPS:BGC:1,2012-09-07T12:36:00Z,26.4040,-81.8810,27.19,1111122 
COMPS,ioos:station:USF.COMPS:BGC:1,2012-09-07T12:42:00Z,26.4040,-81.8810,27.19,1111122 
COMPS,ioos:station:USF.COMPS:BGC:1,2012-09-07T12:48:00Z,26.4040,-81.8810,27.36,1111122 
COMPS,ioos:station:USF.COMPS:BGC:1,2012-09-07T12:54:00Z,26.4040,-81.8810,27.54,1111122 
COMPS,ioos:station:USF.COMPS:BGC:1,2012-09-07T13:00:00Z,26.4040,-81.8810,27.58,1111122 
COMPS,ioos:station:USF.COMPS:BGC:1,2012-09-07T13:06:00Z,26.4040,-81.8810,27.7,1111122 
COMPS,ioos:station:USF.COMPS:BGC:1,2012-09-07T13:12:00Z,26.4040,-81.8810,27.94,1111122 
COMPS,ioos:station:USF.COMPS:BGC:1,2012-09-07T13:18:00Z,26.4040,-81.8810,28.07,1111122 
COMPS,ioos:station:USF.COMPS:BGC:1,2012-09-07T13:24:00Z,26.4040,-81.8810,28.07,1111122 
COMPS,ioos:station:USF.COMPS:BGC:1,2012-09-07T13:30:00Z,26.4040,-81.8810,28.13,1111122 
COMPS,ioos:station:USF.COMPS:BGC:1,2012-09-07T13:36:00Z,26.4040,-81.8810,28.11,1111122 
COMPS,ioos:station:USF.COMPS:BGC:1,2012-09-07T13:42:00Z,26.4040,-81.8810,27.76,1111122 
COMPS,ioos:station:USF.COMPS:BGC:1,2012-09-07T13:48:00Z,26.4040,-81.8810,28.03,1111122 
COMPS,ioos:station:USF.COMPS:BGC:1,2012-09-07T13:54:00Z,26.4040,-81.8810,28.39,1111122 
COMPS,ioos:station:USF.COMPS:BGC:1,2012-09-07T14:00:00Z,26.4040,-81.8810,28.23,1111122 
COMPS,ioos:station:USF.COMPS:BGC:1,2012-09-07T14:06:00Z,26.4040,-81.8810,28.24,1111122 
COMPS,ioos:station:USF.COMPS:BGC:1,2012-09-07T14:12:00Z,26.4040,-81.8810,28.37,1111122 
COMPS,ioos:station:USF.COMPS:BGC:1,2012-09-07T14:18:00Z,26.4040,-81.8810,28.44,1111122 
COMPS,ioos:station:USF.COMPS:BGC:1,2012-09-07T14:24:00Z,26.4040,-81.8810,28.52,1111122 
COMPS,ioos:station:USF.COMPS:BGC:1,2012-09-07T14:30:00Z,26.4040,-81.8810,28.38,1111122 
COMPS,ioos:station:USF.COMPS:BGC:1,2012-09-07T14:36:00Z,26.4040,-81.8810,28.44,1111122 
COMPS,ioos:station:USF.COMPS:BGC:1,2012-09-07T14:42:00Z,26.4040,-81.8810,28.59,1111122 
COMPS,ioos:station:USF.COMPS:BGC:1,2012-09-07T14:48:00Z,26.4040,-81.8810,28.61,1111122 
COMPS,ioos:station:USF.COMPS:BGC:1,2012-09-07T14:54:00Z,26.4040,-81.8810,28.56,1111122 
COMPS,ioos:station:USF.COMPS:BGC:1,2012-09-07T16:00:00Z,26.4040,-81.8810,29.05,1111122 
COMPS,ioos:station:USF.COMPS:BGC:1,2012-09-07T16:06:00Z,26.4040,-81.8810,28.99,1111122 
COMPS,ioos:station:USF.COMPS:BGC:1,2012-09-07T16:12:00Z,26.4040,-81.8810,29.06,1111122 
COMPS,ioos:station:USF.COMPS:BGC:1,2012-09-07T16:18:00Z,26.4040,-81.8810,29.09,1111122 
COMPS,ioos:station:USF.COMPS:BGC:1,2012-09-07T16:24:00Z,26.4040,-81.8810,29.11,1111122 
COMPS,ioos:station:USF.COMPS:BGC:1,2012-09-07T16:30:00Z,26.4040,-81.8810,29.09,1111122 
COMPS,ioos:station:USF.COMPS:BGC:1,2012-09-07T16:36:00Z,26.4040,-81.8810,29.15,1111122 
COMPS,ioos:station:USF.COMPS:BGC:1,2012-09-07T16:42:00Z,26.4040,-81.8810,29.19,1111122 
COMPS,ioos:station:USF.COMPS:BGC:1,2012-09-07T16:48:00Z,26.4040,-81.8810,29.27,1111122 
COMPS,ioos:station:USF.COMPS:BGC:1,2012-09-07T16:54:00Z,26.4040,-81.8810,29.1,1111122 
COMPS,ioos:station:USF.COMPS:BGC:1,2012-09-07T17:00:00Z,26.4040,-81.8810,29.1,1111122 
COMPS,ioos:station:USF.COMPS:BGC:1,2012-09-07T17:06:00Z,26.4040,-81.8810,29.18,1111122 
COMPS,ioos:station:USF.COMPS:BGC:1,2012-09-07T17:12:00Z,26.4040,-81.8810,29.16,1111122 
COMPS,ioos:station:USF.COMPS:BGC:1,2012-09-07T17:18:00Z,26.4040,-81.8810,29.14,1111122 
COMPS,ioos:station:USF.COMPS:BGC:1,2012-09-07T17:24:00Z,26.4040,-81.8810,29.11,1111122 
COMPS,ioos:station:USF.COMPS:BGC:1,2012-09-07T17:30:00Z,26.4040,-81.8810,29.2,1111122 
COMPS,ioos:station:USF.COMPS:BGC:1,2012-09-07T17:36:00Z,26.4040,-81.8810,29.14,1111122 
COMPS,ioos:station:USF.COMPS:BGC:1,2012-09-07T17:42:00Z,26.4040,-81.8810,29.3,1111122 
COMPS,ioos:station:USF.COMPS:BGC:1,2012-09-07T17:48:00Z,26.4040,-81.8810,29.4,1111122 
COMPS,ioos:station:USF.COMPS:BGC:1,2012-09-07T17:54:00Z,26.4040,-81.8810,29.46,1111122 
COMPS,ioos:station:USF.COMPS:BGC:1,2012-09-07T18:00:00Z,26.4040,-81.8810,29.4,1111122 
COMPS,ioos:station:USF.COMPS:BGC:1,2012-09-07T18:06:00Z,26.4040,-81.8810,29.5,1111122 
COMPS,ioos:station:USF.COMPS:BGC:1,2012-09-07T18:12:00Z,26.4040,-81.8810,29.46,1111122 
COMPS,ioos:station:USF.COMPS:BGC:1,2012-09-07T18:18:00Z,26.4040,-81.8810,29.44,1111122 
COMPS,ioos:station:USF.COMPS:BGC:1,2012-09-07T18:24:00Z,26.4040,-81.8810,29.49,1111122 
COMPS,ioos:station:USF.COMPS:BGC:1,2012-09-07T18:30:00Z,26.4040,-81.8810,29.49,1111122 
COMPS,ioos:station:USF.COMPS:BGC:1,2012-09-07T18:36:00Z,26.4040,-81.8810,29.38,1111122 
COMPS,ioos:station:USF.COMPS:BGC:1,2012-09-07T18:42:00Z,26.4040,-81.8810,29.35,1111122 
COMPS,ioos:station:USF.COMPS:BGC:1,2012-09-07T18:48:00Z,26.4040,-81.8810,29.47,1111122 
COMPS,ioos:station:USF.COMPS:BGC:1,2012-09-07T18:54:00Z,26.4040,-81.8810,29.47,1111122 
COMPS,ioos:station:USF.COMPS:BGC:1,2012-09-07T19:00:00Z,26.4040,-81.8810,29.5,1111122 
COMPS,ioos:station:USF.COMPS:BGC:1,2012-09-07T19:06:00Z,26.4040,-81.8810,29.52,1111122 
COMPS,ioos:station:USF.COMPS:BGC:1,2012-09-07T19:12:00Z,26.4040,-81.8810,29.44,1111122 
COMPS,ioos:station:USF.COMPS:BGC:1,2012-09-07T19:18:00Z,26.4040,-81.8810,29.42,1111122 
COMPS,ioos:station:USF.COMPS:BGC:1,2012-09-07T19:24:00Z,26.4040,-81.8810,29.46,1111122 
COMPS,ioos:station:USF.COMPS:BGC:1,2012-09-07T19:30:00Z,26.4040,-81.8810,29.51,1111122 
COMPS,ioos:station:USF.COMPS:BGC:1,2012-09-07T19:36:00Z,26.4040,-81.8810,29.46,1111122 
COMPS,ioos:station:USF.COMPS:BGC:1,2012-09-07T19:42:00Z,26.4040,-81.8810,29.54,1111122 
COMPS,ioos:station:USF.COMPS:BGC:1,2012-09-07T19:48:00Z,26.4040,-81.8810,29.49,1111122 
COMPS,ioos:station:USF.COMPS:BGC:1,2012-09-07T19:54:00Z,26.4040,-81.8810,29.53,1111122 
COMPS,ioos:station:USF.COMPS:BGC:1,2012-09-07T20:00:00Z,26.4040,-81.8810,29.5,1111122 
COMPS,ioos:station:USF.COMPS:BGC:1,2012-09-07T20:06:00Z,26.4040,-81.8810,29.45,1111122 
COMPS,ioos:station:USF.COMPS:BGC:1,2012-09-07T20:12:00Z,26.4040,-81.8810,29.48,1111122 
COMPS,ioos:station:USF.COMPS:BGC:1,2012-09-07T20:18:00Z,26.4040,-81.8810,29.46,1111122 
COMPS,ioos:station:USF.COMPS:BGC:1,2012-09-07T20:24:00Z,26.4040,-81.8810,29.46,1111122 
COMPS,ioos:station:USF.COMPS:BGC:1,2012-09-07T20:30:00Z,26.4040,-81.8810,29.45,1111122 
COMPS,ioos:station:USF.COMPS:BGC:1,2012-09-07T20:36:00Z,26.4040,-81.8810,29.58,1111122 
COMPS,ioos:station:USF.COMPS:BGC:1,2012-09-07T20:42:00Z,26.4040,-81.8810,29.53,1111122 
COMPS,ioos:station:USF.COMPS:BGC:1,2012-09-07T20:48:00Z,26.4040,-81.8810,29.6,1111122 
COMPS,ioos:station:USF.COMPS:BGC:1,2012-09-07T20:54:00Z,26.4040,-81.8810,29.47,1111122 
COMPS,ioos:station:USF.COMPS:BGC:1,2012-09-07T21:00:00Z,26.4040,-81.8810,29.5,1111122 
COMPS,ioos:station:USF.COMPS:BGC:1,2012-09-07T21:06:00Z,26.4040,-81.8810,29.37,1111122 
COMPS,ioos:station:USF.COMPS:BGC:1,2012-09-07T21:12:00Z,26.4040,-81.8810,29.37,1111122 
COMPS,ioos:station:USF.COMPS:BGC:1,2012-09-07T21:18:00Z,26.4040,-81.8810,29.34,1111122 
COMPS,ioos:station:USF.COMPS:BGC:1,2012-09-07T21:24:00Z,26.4040,-81.8810,29.45,1111122 
COMPS,ioos:station:USF.COMPS:BGC:1,2012-09-07T21:30:00Z,26.4040,-81.8810,29.55,1111122 
COMPS,ioos:station:USF.COMPS:BGC:1,2012-09-07T21:36:00Z,26.4040,-81.8810,29.52,1111122 
COMPS,ioos:station:USF.COMPS:BGC:1,2012-09-07T21:42:00Z,26.4040,-81.8810,29.52,1111122 
COMPS,ioos:station:USF.COMPS:BGC:1,2012-09-07T21:48:00Z,26.4040,-81.8810,29.49,1111122 
COMPS,ioos:station:USF.COMPS:BGC:1,2012-09-07T21:54:00Z,26.4040,-81.8810,29.7,1111122 
COMPS,ioos:station:USF.COMPS:BGC:1,2012-09-07T22:00:00Z,26.4040,-81.8810,29.7,1111122 
COMPS,ioos:station:USF.COMPS:BGC:1,2012-09-07T22:06:00Z,26.4040,-81.8810,29.64,1111122 
COMPS,ioos:station:USF.COMPS:BGC:1,2012-09-07T22:12:00Z,26.4040,-81.8810,29.62,1111122 
COMPS,ioos:station:USF.COMPS:BGC:1,2012-09-07T22:18:00Z,26.4040,-81.8810,29.64,1111122 
COMPS,ioos:station:USF.COMPS:BGC:1,2012-09-07T22:24:00Z,26.4040,-81.8810,29.63,1111122 
COMPS,ioos:station:USF.COMPS:BGC:1,2012-09-07T22:30:00Z,26.4040,-81.8810,29.64,1111122 
COMPS,ioos:station:USF.COMPS:BGC:1,2012-09-07T22:36:00Z,26.4040,-81.8810,29.67,1111122 
COMPS,ioos:station:USF.COMPS:BGC:1,2012-09-07T22:42:00Z,26.4040,-81.8810,29.67,1111122 
COMPS,ioos:station:USF.COMPS:BGC:1,2012-09-07T22:48:00Z,26.4040,-81.8810,29.56,1111122 
COMPS,ioos:station:USF.COMPS:BGC:1,2012-09-07T22:54:00Z,26.4040,-81.8810,29.4,1111122 
COMPS,ioos:station:USF.COMPS:BGC:1,2012-09-07T23:00:00Z,26.4040,-81.8810,29.4,1111122 
COMPS,ioos:station:USF.COMPS:BGC:1,2012-09-07T23:06:00Z,26.4040,-81.8810,29.45,1111122 
COMPS,ioos:station:USF.COMPS:BGC:1,2012-09-07T23:12:00Z,26.4040,-81.8810,29.34,1111122 
COMPS,ioos:station:USF.COMPS:BGC:1,2012-09-07T23:18:00Z,26.4040,-81.8810,29.26,1111122 
COMPS,ioos:station:USF.COMPS:BGC:1,2012-09-07T23:24:00Z,26.4040,-81.8810,29.16,1111122 
COMPS,ioos:station:USF.COMPS:BGC:1,2012-09-07T23:30:00Z,26.4040,-81.8810,29.17,1111122 
COMPS,ioos:station:USF.COMPS:BGC:1,2012-09-07T23:36:00Z,26.4040,-81.8810,29.1,1111122 
COMPS,ioos:station:USF.COMPS:BGC:1,2012-09-07T23:42:00Z,26.4040,-81.8810,29.05,1111122 
COMPS,ioos:station:USF.COMPS:BGC:1,2012-09-07T23:48:00Z,26.4040,-81.8810,29.01,1111122 
COMPS,ioos:station:USF.COMPS:BGC:1,2012-09-07T23:54:00Z,26.4040,-81.8810,29.02,1111122 
COMPS,ioos:station:USF.COMPS:BGC:1,2012-09-08T00:00:00Z,26.4040,-81.8810,29.0,1111122 
COMPS,ioos:station:USF.COMPS:BGC:1,2012-09-08T00:06:00Z,26.4040,-81.8810,28.97,1111122 
COMPS,ioos:station:USF.COMPS:BGC:1,2012-09-08T00:12:00Z,26.4040,-81.8810,29.04,1111122 
COMPS,ioos:station:USF.COMPS:BGC:1,2012-09-08T00:18:00Z,26.4040,-81.8810,29.02,1111122 
COMPS,ioos:station:USF.COMPS:BGC:1,2012-09-08T00:24:00Z,26.4040,-81.8810,28.99,1111122 
COMPS,ioos:station:USF.COMPS:BGC:1,2012-09-08T00:30:00Z,26.4040,-81.8810,29.04,1111122 
COMPS,ioos:station:USF.COMPS:BGC:1,2012-09-08T00:36:00Z,26.4040,-81.8810,29.04,1111122 
COMPS,ioos:station:USF.COMPS:BGC:1,2012-09-08T00:42:00Z,26.4040,-81.8810,28.93,1111122 
COMPS,ioos:station:USF.COMPS:BGC:1,2012-09-08T00:48:00Z,26.4040,-81.8810,28.96,1111122 
COMPS,ioos:station:USF.COMPS:BGC:1,2012-09-08T00:54:00Z,26.4040,-81.8810,28.94,1111122 
COMPS,ioos:station:USF.COMPS:BGC:1,2012-09-08T01:00:00Z,26.4040,-81.8810,28.9,1111122 
COMPS,ioos:station:USF.COMPS:BGC:1,2012-09-08T01:06:00Z,26.4040,-81.8810,28.99,1111122 
COMPS,ioos:station:USF.COMPS:BGC:1,2012-09-08T01:12:00Z,26.4040,-81.8810,28.96,1111122 
COMPS,ioos:station:USF.COMPS:BGC:1,2012-09-08T01:18:00Z,26.4040,-81.8810,28.95,1111122 
COMPS,ioos:station:USF.COMPS:BGC:1,2012-09-08T01:24:00Z,26.4040,-81.8810,28.98,1111122 
COMPS,ioos:station:USF.COMPS:BGC:1,2012-09-08T01:30:00Z,26.4040,-81.8810,28.91,1111122 
COMPS,ioos:station:USF.COMPS:BGC:1,2012-09-08T01:36:00Z,26.4040,-81.8810,28.9,1111122 
COMPS,ioos:station:USF.COMPS:BGC:1,2012-09-08T01:42:00Z,26.4040,-81.8810,28.92,1111122 
COMPS,ioos:station:USF.COMPS:BGC:1,2012-09-08T01:48:00Z,26.4040,-81.8810,28.92,1111122 
COMPS,ioos:station:USF.COMPS:BGC:1,2012-09-08T01:54:00Z,26.4040,-81.8810,28.91,1111122 
COMPS,ioos:station:USF.COMPS:BGC:1,2012-09-08T02:00:00Z,26.4040,-81.8810,28.9,1111122 
COMPS,ioos:station:USF.COMPS:BGC:1,2012-09-08T02:06:00Z,26.4040,-81.8810,28.89,1111122 
COMPS,ioos:station:USF.COMPS:BGC:1,2012-09-08T02:12:00Z,26.4040,-81.8810,28.79,1111122 
COMPS,ioos:station:USF.COMPS:BGC:1,2012-09-08T02:18:00Z,26.4040,-81.8810,28.77,1111122 
COMPS,ioos:station:USF.COMPS:BGC:1,2012-09-08T02:24:00Z,26.4040,-81.8810,28.74,1111122 
COMPS,ioos:station:USF.COMPS:BGC:1,2012-09-08T02:30:00Z,26.4040,-81.8810,28.77,1111122 
COMPS,ioos:station:USF.COMPS:BGC:1,2012-09-08T02:36:00Z,26.4040,-81.8810,28.8,1111122 
COMPS,ioos:station:USF.COMPS:BGC:1,2012-09-08T02:42:00Z,26.4040,-81.8810,28.8,1111122 
COMPS,ioos:station:USF.COMPS:BGC:1,2012-09-08T02:48:00Z,26.4040,-81.8810,28.86,1111122 
COMPS,ioos:station:USF.COMPS:BGC:1,2012-09-08T02:54:00Z,26.4040,-81.8810,28.87,1111122 
COMPS,ioos:station:USF.COMPS:BGC:1,2012-09-08T03:00:00Z,26.4040,-81.8810,28.9,1111122 
COMPS,ioos:station:USF.COMPS:BGC:1,2012-09-08T03:06:00Z,26.4040,-81.8810,28.83,1111122 
COMPS,ioos:station:USF.COMPS:BGC:1,2012-09-08T03:12:00Z,26.4040,-81.8810,28.82,1111122 
COMPS,ioos:station:USF.COMPS:BGC:1,2012-09-08T03:18:00Z,26.4040,-81.8810,28.82,1111122 
COMPS,ioos:station:USF.COMPS:BGC:1,2012-09-08T03:24:00Z,26.4040,-81.8810,28.82,1111122 
COMPS,ioos:station:USF.COMPS:BGC:1,2012-09-08T03:30:00Z,26.4040,-81.8810,28.73,1111122 
COMPS,ioos:station:USF.COMPS:BGC:1,2012-09-08T03:36:00Z,26.4040,-81.8810,28.63,1111122 
COMPS,ioos:station:USF.COMPS:BGC:1,2012-09-08T03:42:00Z,26.4040,-81.8810,28.61,1111122 
COMPS,ioos:station:USF.COMPS:BGC:1,2012-09-08T03:48:00Z,26.4040,-81.8810,28.57,1111122 
COMPS,ioos:station:USF.COMPS:BGC:1,2012-09-08T03:54:00Z,26.4040,-81.8810,28.52,1111122 
COMPS,ioos:station:USF.COMPS:BGC:1,2012-09-08T04:00:00Z,26.4040,-81.8810,28.5,1111122 
COMPS,ioos:station:USF.COMPS:BGC:1,2012-09-08T04:06:00Z,26.4040,-81.8810,28.47,1111122 
COMPS,ioos:station:USF.COMPS:BGC:1,2012-09-08T04:12:00Z,26.4040,-81.8810,28.47,1111122 
COMPS,ioos:station:USF.COMPS:BGC:1,2012-09-08T04:18:00Z,26.4040,-81.8810,28.41,1111122 
COMPS,ioos:station:USF.COMPS:BGC:1,2012-09-08T04:24:00Z,26.4040,-81.8810,28.23,1111122 
COMPS,ioos:station:USF.COMPS:BGC:1,2012-09-08T04:30:00Z,26.4040,-81.8810,28.44,1111122 
COMPS,ioos:station:USF.COMPS:BGC:1,2012-09-08T04:36:00Z,26.4040,-81.8810,28.52,1111122 
COMPS,ioos:station:USF.COMPS:BGC:1,2012-09-08T04:42:00Z,26.4040,-81.8810,28.42,1111122 
COMPS,ioos:station:USF.COMPS:BGC:1,2012-09-08T04:48:00Z,26.4040,-81.8810,28.42,1111122 
COMPS,ioos:station:USF.COMPS:BGC:1,2012-09-08T04:54:00Z,26.4040,-81.8810,28.4,1111122 
COMPS,ioos:station:USF.COMPS:BGC:1,2012-09-08T05:00:00Z,26.4040,-81.8810,28.4,1111122 
COMPS,ioos:station:USF.COMPS:BGC:1,2012-09-08T05:06:00Z,26.4040,-81.8810,28.5,1111122 
COMPS,ioos:station:USF.COMPS:BGC:1,2012-09-08T05:12:00Z,26.4040,-81.8810,28.49,1111122 
COMPS,ioos:station:USF.COMPS:BGC:1,2012-09-08T05:18:00Z,26.4040,-81.8810,28.41,1111122 
COMPS,ioos:station:USF.COMPS:BGC:1,2012-09-08T05:24:00Z,26.4040,-81.8810,28.32,1111122 
COMPS,ioos:station:USF.COMPS:BGC:1,2012-09-08T05:30:00Z,26.4040,-81.8810,28.38,1111122 
COMPS,ioos:station:USF.COMPS:BGC:1,2012-09-08T05:36:00Z,26.4040,-81.8810,28.49,1111122 
COMPS,ioos:station:USF.COMPS:BGC:1,2012-09-08T05:42:00Z,26.4040,-81.8810,28.38,1111122 
COMPS,ioos:station:USF.COMPS:BGC:1,2012-09-08T05:48:00Z,26.4040,-81.8810,28.48,1111122 
COMPS,ioos:station:USF.COMPS:BGC:1,2012-09-08T05:54:00Z,26.4040,-81.8810,28.47,1111122 
COMPS,ioos:station:USF.COMPS:BGC:1,2012-09-08T06:00:00Z,26.4040,-81.8810,28.5,1111122 
COMPS,ioos:station:USF.COMPS:BGC:1,2012-09-08T06:06:00Z,26.4040,-81.8810,28.47,1111122 
COMPS,ioos:station:USF.COMPS:BGC:1,2012-09-08T06:12:00Z,26.4040,-81.8810,28.44,1111122 
COMPS,ioos:station:USF.COMPS:BGC:1,2012-09-08T06:18:00Z,26.4040,-81.8810,28.46,1111122 
COMPS,ioos:station:USF.COMPS:BGC:1,2012-09-08T06:24:00Z,26.4040,-81.8810,28.48,1111122 
COMPS,ioos:station:USF.COMPS:BGC:1,2012-09-08T06:30:00Z,26.4040,-81.8810,28.5,1111122 
COMPS,ioos:station:USF.COMPS:BGC:1,2012-09-08T06:36:00Z,26.4040,-81.8810,28.51,1111122 
COMPS,ioos:station:USF.COMPS:BGC:1,2012-09-08T06:42:00Z,26.4040,-81.8810,28.51,1111122 
COMPS,ioos:station:USF.COMPS:BGC:1,2012-09-08T06:48:00Z,26.4040,-81.8810,28.52,1111122 
COMPS,ioos:station:USF.COMPS:BGC:1,2012-09-08T06:54:00Z,26.4040,-81.8810,28.49,1111122 
COMPS,ioos:station:USF.COMPS:BGC:1,2012-09-08T07:00:00Z,26.4040,-81.8810,28.5,1111122 
COMPS,ioos:station:USF.COMPS:BGC:1,2012-09-08T07:06:00Z,26.4040,-81.8810,28.48,1111122 
COMPS,ioos:station:USF.COMPS:BGC:1,2012-09-08T07:12:00Z,26.4040,-81.8810,28.47,1111122 
COMPS,ioos:station:USF.COMPS:BGC:1,2012-09-08T07:18:00Z,26.4040,-81.8810,28.37,1111122 
COMPS,ioos:station:USF.COMPS:BGC:1,2012-09-08T07:24:00Z,26.4040,-81.8810,28.37,1111122 
COMPS,ioos:station:USF.COMPS:BGC:1,2012-09-08T07:30:00Z,26.4040,-81.8810,28.37,1111122 
COMPS,ioos:station:USF.COMPS:BGC:1,2012-09-08T07:36:00Z,26.4040,-81.8810,28.27,1111122 
COMPS,ioos:station:USF.COMPS:BGC:1,2012-09-08T07:42:00Z,26.4040,-81.8810,27.96,1111122 
COMPS,ioos:station:USF.COMPS:BGC:1,2012-09-08T07:48:00Z,26.4040,-81.8810,28.02,1111122 
COMPS,ioos:station:USF.COMPS:BGC:1,2012-09-08T07:54:00Z,26.4040,-81.8810,28.32,1111122 
COMPS,ioos:station:USF.COMPS:BGC:1,2012-09-08T08:00:00Z,26.4040,-81.8810,28.3,1111122 
COMPS,ioos:station:USF.COMPS:BGC:1,2012-09-08T08:06:00Z,26.4040,-81.8810,27.8,1111122 
COMPS,ioos:station:USF.COMPS:BGC:1,2012-09-08T08:12:00Z,26.4040,-81.8810,27.94,1111122 
COMPS,ioos:station:USF.COMPS:BGC:1,2012-09-08T08:18:00Z,26.4040,-81.8810,28.26,1111122 
COMPS,ioos:station:USF.COMPS:BGC:1,2012-09-08T08:24:00Z,26.4040,-81.8810,28.07,1111122 
COMPS,ioos:station:USF.COMPS:BGC:1,2012-09-08T08:30:00Z,26.4040,-81.8810,27.25,1111122 
COMPS,ioos:station:USF.COMPS:BGC:1,2012-09-08T08:36:00Z,26.4040,-81.8810,27.14,1111122 
COMPS,ioos:station:USF.COMPS:BGC:1,2012-09-08T08:42:00Z,26.4040,-81.8810,27.1,1111122 
COMPS,ioos:station:USF.COMPS:BGC:1,2012-09-08T08:48:00Z,26.4040,-81.8810,27.12,1111122 
COMPS,ioos:station:USF.COMPS:BGC:1,2012-09-08T08:54:00Z,26.4040,-81.8810,27.21,1111122 
COMPS,ioos:station:USF.COMPS:BGC:1,2012-09-08T09:00:00Z,26.4040,-81.8810,27.2,1111122 
COMPS,ioos:station:USF.COMPS:BGC:1,2012-09-08T09:06:00Z,26.4040,-81.8810,27.07,1111122 
COMPS,ioos:station:USF.COMPS:BGC:1,2012-09-08T09:12:00Z,26.4040,-81.8810,26.99,1111122 
COMPS,ioos:station:USF.COMPS:BGC:1,2012-09-08T09:18:00Z,26.4040,-81.8810,26.97,1111122 
COMPS,ioos:station:USF.COMPS:BGC:1,2012-09-08T09:24:00Z,26.4040,-81.8810,26.99,1111122 
COMPS,ioos:station:USF.COMPS:BGC:1,2012-09-08T09:30:00Z,26.4040,-81.8810,27.01,1111122 
COMPS,ioos:station:USF.COMPS:BGC:1,2012-09-08T09:36:00Z,26.4040,-81.8810,27.1,1111122 
COMPS,ioos:station:USF.COMPS:BGC:1,2012-09-08T09:42:00Z,26.4040,-81.8810,27.08,1111122 
COMPS,ioos:station:USF.COMPS:BGC:1,2012-09-08T09:48:00Z,26.4040,-81.8810,27.01,1111122 
COMPS,ioos:station:USF.COMPS:BGC:1,2012-09-08T09:54:00Z,26.4040,-81.8810,27.09,1111122 
COMPS,ioos:station:USF.COMPS:BGC:1,2012-09-08T10:00:00Z,26.4040,-81.8810,27.1,1111122 
COMPS,ioos:station:USF.COMPS:BGC:1,2012-09-08T10:06:00Z,26.4040,-81.8810,27.13,1111122 
COMPS,ioos:station:USF.COMPS:BGC:1,2012-09-08T10:12:00Z,26.4040,-81.8810,26.98,1111122 
COMPS,ioos:station:USF.COMPS:BGC:1,2012-09-08T10:18:00Z,26.4040,-81.8810,26.7,1111122 
COMPS,ioos:station:USF.COMPS:BGC:1,2012-09-08T10:24:00Z,26.4040,-81.8810,26.64,1111122 
COMPS,ioos:station:USF.COMPS:BGC:1,2012-09-08T10:30:00Z,26.4040,-81.8810,26.56,1111122 
COMPS,ioos:station:USF.COMPS:BGC:1,2012-09-08T10:36:00Z,26.4040,-81.8810,26.39,1111122 
COMPS,ioos:station:USF.COMPS:BGC:1,2012-09-08T10:42:00Z,26.4040,-81.8810,26.39,1111122 
COMPS,ioos:station:USF.COMPS:BGC:1,2012-09-08T10:48:00Z,26.4040,-81.8810,26.3,1111122 
COMPS,ioos:station:USF.COMPS:BGC:1,2012-09-08T10:54:00Z,26.4040,-81.8810,26.28,1111122 
COMPS,ioos:station:USF.COMPS:BGC:1,2012-09-08T11:00:00Z,26.4040,-81.8810,26.3,1111122 
COMPS,ioos:station:USF.COMPS:BGC:1,2012-09-08T11:06:00Z,26.4040,-81.8810,26.14,1111122 
COMPS,ioos:station:USF.COMPS:BGC:1,2012-09-08T11:12:00Z,26.4040,-81.8810,26.19,1111122 
COMPS,ioos:station:USF.COMPS:BGC:1,2012-09-08T11:18:00Z,26.4040,-81.8810,26.07,1111122 
COMPS,ioos:station:USF.COMPS:BGC:1,2012-09-08T11:24:00Z,26.4040,-81.8810,26.14,1111122 
COMPS,ioos:station:USF.COMPS:BGC:1,2012-09-08T11:30:00Z,26.4040,-81.8810,26.25,1111122 
COMPS,ioos:station:USF.COMPS:BGC:1,2012-09-08T11:36:00Z,26.4040,-81.8810,26.31,1111122 
COMPS,ioos:station:USF.COMPS:BGC:1,2012-09-08T11:42:00Z,26.4040,-81.8810,26.25,1111122 
COMPS,ioos:station:USF.COMPS:BGC:1,2012-09-08T11:48:00Z,26.4040,-81.8810,26.18,1111122 
COMPS,ioos:station:USF.COMPS:BGC:1,2012-09-08T11:54:00Z,26.4040,-81.8810,26.3,1111122 
COMPS,ioos:station:USF.COMPS:BGC:1,2012-09-08T12:00:00Z,26.4040,-81.8810,26.53,1111122 
COMPS,ioos:station:USF.COMPS:BGC:1,2012-09-08T12:06:00Z,26.4040,-81.8810,26.58,1111122 
COMPS,ioos:station:USF.COMPS:BGC:1,2012-09-08T12:12:00Z,26.4040,-81.8810,26.6,1111122 
COMPS,ioos:station:USF.COMPS:BGC:1,2012-09-08T12:18:00Z,26.4040,-81.8810,26.96,1111122 
COMPS,ioos:station:USF.COMPS:BGC:1,2012-09-08T12:24:00Z,26.4040,-81.8810,27.45,1111122 
COMPS,ioos:station:USF.COMPS:BGC:1,2012-09-08T12:30:00Z,26.4040,-81.8810,27.62,1111122 
COMPS,ioos:station:USF.COMPS:BGC:1,2012-09-08T12:36:00Z,26.4040,-81.8810,27.83,1111122 
COMPS,ioos:station:USF.COMPS:BGC:1,2012-09-08T12:42:00Z,26.4040,-81.8810,27.72,1111122 
COMPS,ioos:station:USF.COMPS:BGC:1,2012-09-08T12:48:00Z,26.4040,-81.8810,27.83,1111122 
COMPS,ioos:station:USF.COMPS:BGC:1,2012-09-08T12:54:00Z,26.4040,-81.8810,28.2,1111122 
COMPS,ioos:station:USF.COMPS:BGC:1,2012-09-08T13:00:00Z,26.4040,-81.8810,28.2,1111122 
COMPS,ioos:station:USF.COMPS:BGC:1,2012-09-08T13:06:00Z,26.4040,-81.8810,28.17,1111122 
COMPS,ioos:station:USF.COMPS:BGC:1,2012-09-08T13:12:00Z,26.4040,-81.8810,28.2,1111122 
COMPS,ioos:station:USF.COMPS:BGC:1,2012-09-08T13:18:00Z,26.4040,-81.8810,28.41,1111122 
COMPS,ioos:station:USF.COMPS:BGC:1,2012-09-08T13:24:00Z,26.4040,-81.8810,28.74,1111122 
COMPS,ioos:station:USF.COMPS:BGC:1,2012-09-08T13:30:00Z,26.4040,-81.8810,28.89,1111122 
COMPS,ioos:station:USF.COMPS:BGC:1,2012-09-08T13:36:00Z,26.4040,-81.8810,28.99,1111122 
COMPS,ioos:station:USF.COMPS:BGC:1,2012-09-08T13:42:00Z,26.4040,-81.8810,29.15,1111122 
COMPS,ioos:station:USF.COMPS:BGC:1,2012-09-08T13:48:00Z,26.4040,-81.8810,29.1,1111122 
COMPS,ioos:station:USF.COMPS:BGC:1,2012-09-08T13:54:00Z,26.4040,-81.8810,28.97,1111122 
COMPS,ioos:station:USF.COMPS:BGC:1,2012-09-08T14:00:00Z,26.4040,-81.8810,29.0,1111122 
COMPS,ioos:station:USF.COMPS:BGC:1,2012-09-08T14:06:00Z,26.4040,-81.8810,28.93,1111122 
COMPS,ioos:station:USF.COMPS:BGC:1,2012-09-08T14:12:00Z,26.4040,-81.8810,29.09,1111122 
COMPS,ioos:station:USF.COMPS:BGC:1,2012-09-08T14:18:00Z,26.4040,-81.8810,29.13,1111122 
COMPS,ioos:station:USF.COMPS:BGC:1,2012-09-08T14:24:00Z,26.4040,-81.8810,29.18,1111122 
COMPS,ioos:station:USF.COMPS:BGC:1,2012-09-08T14:30:00Z,26.4040,-81.8810,29.28,1111122 
COMPS,ioos:station:USF.COMPS:BGC:1,2012-09-08T14:36:00Z,26.4040,-81.8810,29.28,1111122 
COMPS,ioos:station:USF.COMPS:BGC:1,2012-09-08T14:42:00Z,26.4040,-81.8810,29.12,1111122 
COMPS,ioos:station:USF.COMPS:BGC:1,2012-09-08T14:48:00Z,26.4040,-81.8810,29.21,1111122 
COMPS,ioos:station:USF.COMPS:BGC:1,2012-09-08T14:54:00Z,26.4040,-81.8810,29.28,1111122 
COMPS,ioos:station:USF.COMPS:BGC:1,2012-09-08T15:00:00Z,26.4040,-81.8810,29.3,1111122 
COMPS,ioos:station:USF.COMPS:BGC:1,2012-09-08T15:06:00Z,26.4040,-81.8810,29.24,1111122 